User: anonymous   Login
Location: Bakov nad Jizerou
(50.4784°N, 14.9394°E)
Time: 17:10:20
(UTC+00:00)
Language:

Cosmos 1536 Rocket - Orbit

View from above orbital plane
View from above orbital plane
View from above satellite
View from above satellite

Ground track
Ground track

The orbit data is extracted from the following two-line orbital elements,

1 14700U 84013B   21289.57050682  .00000136  00000-0  13563-4 0  9995
2 14700  82.5337 118.3626 0020516 147.1656 271.3873 14.83347985 14472
Epoch (UTC): 16 October 2021 13:41:31
Eccentricity: 0.0020516
inclination: 82.5337°
perigee height: 604 km
apogee height: 633 km
right ascension of ascending node: 118.3626°
argument of perigee: 147.1656°
revolutions per day: 14.83347985
mean anomaly at epoch: 271.3873°
orbit number at epoch: 1447

The dashed part of the orbit path shows where the satellite is in the earth's shadow,  

DLR